Stations météo

réclame
Mon MeteoGroup
Soderstjerna, Suède (2667): Température de l'air & dewpoint: 10.12.2017 00:00:00 - 16.12.2017 00:00:00 (CET)Soderstjerna, Suède (2667): Vitesse du vent & gusts: 10.12.2017 00:00:00 - 16.12.2017 00:00:00 (CET)Soderstjerna, Suède (2667): Direction du vent: 10.12.2017 00:00:00 - 16.12.2017 00:00:00 (CET)Soderstjerna, Suède (2667): reduced air pressure: 10.12.2017 00:00:00 - 16.12.2017 00:00:00 (CET)Soderstjerna, Suède (2667): visibility: 10.12.2017 00:00:00 - 16.12.2017 00:00:00 (CET)Soderstjerna, Suède (2667): Quantités de précipitations: 10.12.2017 00:00:00 - 16.12.2017 00:00:00 (CET)
Date & Time tt [°C] td [°C] ff [km/h] ff [knt] fx [km/h] fx [knt] dd ppp [hPa] vv [km] rr [mm]
16.12.2017 00:00:00 3,0 2,0 14 8 22 12 W 996,3 40 0,0
15.12.2017 23:00:00 3,2 2,3 18 10 29 16 W 995,9 40 0,0
15.12.2017 22:00:00 3,4 2,7 22 12 29 16 W 995,5 35 0,0
15.12.2017 21:00:00 3,5 2,5 22 12 29 16 W 995,1 45 0,0
15.12.2017 20:00:00 3,6 2,6 22 12 29 16 W 994,6 50 0,0
15.12.2017 19:00:00 3,8 3,1 22 12 29 16 W 994,3 45 0,0
15.12.2017 18:00:00 3,6 2,9 22 12 25 14 W 993,7 50 0,0
15.12.2017 17:00:00 3,7 3,1 18 10 22 12 W 993,3 50 0,0
15.12.2017 16:00:00 3,8 3,2 14 8 25 14 W 992,7 40 0,0
15.12.2017 15:00:00 3,8 3,4 22 12 32 18 W 992,0 40 0,1
15.12.2017 14:00:00 4,1 3,4 25 14 40 21 W 991,3 14 0,0
15.12.2017 13:00:00 4,2 3,5 29 16 43 23 W 990,8 13 0,0
15.12.2017 12:00:00 3,9 3,5 29 16 43 23 W 990,4 18 0,0
15.12.2017 11:00:00 3,9 3,5 32 18 54 29 W 989,8 10 0,1
15.12.2017 10:00:00 4,4 3,2 43 23 58 31 WSW 989,0 17 0,0
15.12.2017 09:00:00 4,3 3,4 47 25 61 33 WSW 987,9 12 0,1
15.12.2017 08:00:00 4,5 3,2 47 25 61 33 WSW 987,0 9 0,2
15.12.2017 07:00:00 4,7 3,0 43 23 61 33 SW 986,7 27 0,0
15.12.2017 06:00:00 4,8 3,1 43 23 58 31 WSW 986,3 29 0,0
15.12.2017 05:00:00 4,7 2,9 43 23 50 27 WSW 986,1 30 0,0
15.12.2017 04:00:00 4,7 3,2 40 21 54 29 WSW 985,8 30 0,0
15.12.2017 03:00:00 4,7 3,0 43 23 54 29 WSW 985,4 30 0,0
15.12.2017 02:00:00 4,7 3,4 40 21 54 29 WSW 984,9 30 0,0
15.12.2017 01:00:00 4,6 3,3 43 23 58 31 WSW 984,3 35 0,0
15.12.2017 00:00:00 4,6 3,3 43 23 61 33 WSW 983,9 35 0,0
14.12.2017 23:00:00 4,5 3,2 40 21 54 29 WSW 983,4 35 0,0
14.12.2017 22:00:00 4,5 3,2 43 23 58 31 WSW 983,2 40 0,1
14.12.2017 21:00:00 3,3 2,9 36 19 65 35 WSW 983,0 13 0,1
14.12.2017 20:00:00 4,7 3,4 47 25 61 33 SW 982,1 30 0,0
14.12.2017 19:00:00 3,5 2,8 40 21 65 35 WSW 982,2 21 0,8
14.12.2017 18:00:00 2,1 2,0 47 25 68 37 W 981,6 1,6 1,0
14.12.2017 17:00:00 4,9 2,9 54 29 76 41 WSW 980,6 30 0,0
14.12.2017 16:00:00 4,9 2,9 58 31 72 39 WSW 979,5 18 0,1
14.12.2017 15:00:00 3,7 3,3 29 16 50 27 WSW 979,5 40 0,2
14.12.2017 14:00:00 3,1 2,7 36 19 47 25 WSW 978,9 13 0,4
14.12.2017 13:00:00 3,8 3,5 18 10 32 18 SW 978,1 17 0,1
14.12.2017 12:00:00 4,0 3,3 18 10 25 14 S 978,3 26 0,0
14.12.2017 11:00:00 3,7 3,3 22 12 36 19 S 979,2 10 0,1
14.12.2017 10:00:00 3,2 2,9 25 14 43 23 SSE 980,3 9 0,6
14.12.2017 09:00:00 3,2 2,8 36 19 43 23 SSE 981,2 5 0,4
14.12.2017 08:00:00 4,0 3,0 32 18 43 23 SSE 982,1 40 0,1
14.12.2017 07:00:00 3,9 3,0 32 18 47 25 S 982,8 29 0,0
14.12.2017 06:00:00 4,0 3,1 36 19 47 25 S 983,8 17 0,0
14.12.2017 05:00:00 3,9 3,0 36 19 47 25 S 984,3 17 0,1
14.12.2017 04:00:00 3,6 2,9 43 23 50 27 S 985,4 7 0,1
14.12.2017 03:00:00 3,5 2,9 43 23 58 31 S 986,5 8 0,1
14.12.2017 02:00:00 3,5 2,8 47 25 61 33 S 987,4 8 0,1
14.12.2017 01:00:00 3,5 2,9 47 25 61 33 S 988,6 8 0,3
14.12.2017 00:00:00 3,2 2,6 47 25 61 33 S 990,0 5 0,4
13.12.2017 23:00:00 4,2 2,5 50 27 61 33 SSW 990,9 10 0,0
13.12.2017 22:00:00 4,5 2,2 50 27 61 33 S 992,4 28 0,0
13.12.2017 21:00:00 4,5 2,4 47 25 61 33 SSW 994,2 30 0,0
13.12.2017 20:00:00 4,2 1,7 54 29 65 35 SSW 995,5 28 0,0
13.12.2017 19:00:00 4,1 2,0 50 27 65 35 SSW 996,8 21 0,0
13.12.2017 18:00:00 4,1 2,1 54 29 61 33 SSW 997,5 17 0,0
13.12.2017 17:00:00 4,1 1,8 50 27 61 33 SSW 998,8 16 0,0
13.12.2017 16:00:00 4,2 1,7 50 27 61 33 SSW 999,4 30 0,0
13.12.2017 15:00:00 4,1 1,6 43 23 58 31 SSW 1001,0 35 0,0
13.12.2017 14:00:00 4,1 1,6 43 23 58 31 SW 1001,8 40 0,0
13.12.2017 13:00:00 4,2 1,9 40 21 58 31 SW 1002,9 35 0,0
13.12.2017 12:00:00 4,0 1,0 43 23 58 31 SW 1004,0 35 0,0
13.12.2017 11:00:00 4,4 1,6 40 21 58 31 SW 1004,6 35 0,0
13.12.2017 10:00:00 4,1 1,6 36 19 58 31 WSW 1005,4 35 0,0
13.12.2017 09:00:00 3,7 1,1 47 25 58 31 WSW 1005,5 40 0,0
13.12.2017 08:00:00 4,2 1,7 43 23 58 31 WSW 1005,4 35 0,0
13.12.2017 07:00:00 4,5 2,8 43 23 65 35 WSW 1005,0 25 0,0
13.12.2017 06:00:00 4,7 3,2 43 23 65 35 WSW 1004,5 30 0,0
13.12.2017 05:00:00 4,3 3,0 54 29 65 35 WSW 1004,2 40 0,0
13.12.2017 04:00:00 4,4 2,9 50 27 61 33 WSW 1004,1 40 0,2
13.12.2017 03:00:00 3,5 2,3 43 23 61 33 W 1004,3 2,6 0,4
13.12.2017 02:00:00 3,6 2,3 32 18 43 23 W 1004,0 45 0,0
13.12.2017 01:00:00 2,0 1,1 25 14 32 18 W 1004,1 40 0,1
13.12.2017 00:00:00 0,8 -1,0 22 12 32 18 W 1003,8 30 0,0
12.12.2017 23:00:00 0,2 -1,6 22 12 36 19 W 1002,8 50 0,0
12.12.2017 22:00:00 0,5 -0,8 25 14 36 19 W 1001,5 50 0,0
12.12.2017 21:00:00 1,0 -0,6 25 14 40 21 WNW 1000,2 50 0,0
12.12.2017 20:00:00 1,4 0,1 22 12 32 18 WNW 998,8 30 0,0
12.12.2017 19:00:00 1,6 0,1 14 8 29 16 WNW 997,2 50 0,0
12.12.2017 18:00:00 1,7 0,2 14 8 29 16 WNW 995,4 50 0,0
12.12.2017 17:00:00 1,8 0,9 14 8 29 16 WNW 993,8 50 0,0
12.12.2017 16:00:00 1,9 1,3 18 10 29 16 WNW 992,1 40 0,0
12.12.2017 15:00:00 2,0 1,3 14 8 25 14 NW 990,4 45 0,0
12.12.2017 14:00:00 2,2 1,6 11 6 22 12 NW 988,6 50 0,0
12.12.2017 13:00:00 2,4 2,3 11 6 14 8 NNW 987,1 45 0,0
12.12.2017 12:00:00 3,3 3,2 4 2 18 10 N 985,9 17 1,0
12.12.2017 11:00:00 3,9 3,9 14 8 36 19 W 985,9 10 2,0
12.12.2017 10:00:00 5,9 5,9 29 16 36 19 SW 985,0 6 1,0
12.12.2017 09:00:00 5,8 5,8 22 12 25 14 SW 984,9 7 0,4
12.12.2017 08:00:00 5,3 5,3 14 8 22 12 SW 984,8 5 0,3
12.12.2017 07:00:00 3,5 3,5 4 2 11 6 NE 984,8 6 0,2
12.12.2017 06:00:00 3,7 3,7 4 2 11 6 NNE 984,8 6 0,6
12.12.2017 05:00:00 3,4 3,4 7 4 14 8 NNE 984,6 8 0,6
12.12.2017 04:00:00 3,4 3,4 11 6 22 12 NE 984,8 6 0,8
12.12.2017 03:00:00 3,3 3,2 18 10 25 14 NE 985,0 13 1,0
12.12.2017 02:00:00 3,1 3,0 11 6 22 12 NE 985,8 8 1,0
12.12.2017 01:00:00 3,2 2,9 18 10 22 12 ENE 986,2 11 0,6
12.12.2017 00:00:00 3,6 3,3 18 10 22 12 ESE 987,2 15 0,8
11.12.2017 23:00:00 3,6 3,2 18 10 29 16 SE 987,9 16 0,3
11.12.2017 22:00:00 3,9 3,5 22 12 29 16 SE 988,3 8 0,4
11.12.2017 21:00:00 4,4 3,4 14 8 25 14 SE 988,7 23 0,2
11.12.2017 20:00:00 4,5 3,3 18 10 25 14 S 988,9 45 0,0
11.12.2017 19:00:00 3,6 3,3 7 4 18 10 ENE 988,9 12 0,1
11.12.2017 18:00:00 3,6 2,9 11 6 18 10 ENE 988,6 19 0,0
11.12.2017 17:00:00 2,7 2,3 14 8 18 10 NE 988,7 25 0,0
11.12.2017 16:00:00 2,3 1,7 11 6 14 8 NE 989,0 28 0,0
11.12.2017 15:00:00 2,3 1,4 7 4 14 8 NNE 988,5 28 0,0
11.12.2017 14:00:00 2,3 1,3 7 4 14 8 NNE 989,1 30 0,0
11.12.2017 13:00:00 2,3 1,0 7 4 14 8 NNE 988,7 30 0,0
11.12.2017 12:00:00 1,9 0,9 11 6 22 12 NE 988,1 27 0,0
11.12.2017 11:00:00 1,3 0,1 11 6 18 10 NNE 987,6 25 0,0
11.12.2017 10:00:00 1,2 -0,3 7 4 18 10 NNE 988,2 24 0,0
11.12.2017 09:00:00 1,3 -0,2 7 4 18 10 NNE 987,7 25 0,0
11.12.2017 08:00:00 1,8 -0,5 11 6 22 12 NE 987,0 30 0,0
11.12.2017 07:00:00 2,5 -1,3 18 10 29 16 E 986,5 40 0,0
11.12.2017 06:00:00 2,6 -1,0 14 8 29 16 E 986,1 30 0,0
11.12.2017 05:00:00 2,3 -1,7 18 10 25 14 E 986,1 30 0,0
11.12.2017 04:00:00 2,2 -1,8 22 12 32 18 E 986,1 45 0,0
11.12.2017 03:00:00 2,2 -1,8 25 14 36 19 ESE 986,2 40 0,0
11.12.2017 02:00:00 2,4 -1,0 29 16 36 19 ESE 986,7 40 0,0
11.12.2017 01:00:00 2,3 -1,1 25 14 36 19 SE 987,0 45 0,0
11.12.2017 00:00:00 2,3 -1,1 29 16 36 19 ESE 987,5 45 0,0
10.12.2017 23:00:00 2,5 -0,9 25 14 36 19 SE 987,7 45 0,0
10.12.2017 22:00:00 2,7 -0,9 29 16 47 25 SSE 988,3 45 0,0
10.12.2017 21:00:00 2,9 -0,4 36 19 47 25 SSE 988,7 45 0,0
10.12.2017 20:00:00 1,9 0,8 40 21 47 25 S 989,0 18 0,0
10.12.2017 19:00:00 1,9 1,5 36 19 47 25 S 989,0 24 0,2
10.12.2017 18:00:00 3,0 0,7 32 18 40 21 S 989,4 45 0,0
10.12.2017 17:00:00 3,3 0,7 32 18 43 23 S 989,6 45 0,0
10.12.2017 16:00:00 3,2 0,8 36 19 43 23 SSW 990,1 45 0,0
10.12.2017 15:00:00 3,1 0,8 36 19 54 29 SSW 990,4 45 0,0
10.12.2017 14:00:00 3,3 2,1 47 25 54 29 SSW 990,2 27 0,0
10.12.2017 13:00:00 1,5 1,5 25 14 50 27 WSW 991,5 29 0,6
10.12.2017 12:00:00 2,0 1,9 40 21 50 27 SSW 991,8 12 0,4
10.12.2017 11:00:00 2,7 1,4 29 16 40 21 W 992,5 10 0,1
10.12.2017 10:00:00 2,6 1,7 22 12 36 19 WSW 993,2 35 0,3
10.12.2017 09:00:00 3,1 1,1 18 10 25 14 SW 993,5 40 0,0
10.12.2017 08:00:00 3,0 0,6 22 12 32 18 W 993,8 45 0,0
10.12.2017 07:00:00 2,9 0,6 29 16 36 19 W 994,0 45 0,0
10.12.2017 06:00:00 3,2 0,8 29 16 43 23 WSW 994,1 45 0,0
10.12.2017 05:00:00 3,5 1,1 29 16 43 23 WSW 994,5 45 0,0
10.12.2017 04:00:00 3,6 1,1 36 19 47 25 W 994,9 40 0,0
10.12.2017 03:00:00 3,7 1,2 36 19 47 25 WSW 995,0 40 0,0
10.12.2017 02:00:00 3,2 1,1 36 19 47 25 W 995,6 35 0,0
10.12.2017 01:00:00 - - - - - - - - - -
10.12.2017 00:00:00 3,5 1,4 36 19 50 27 W 995,9 30 0,0

tt = Température de l'air
td = dewpoint
ff = Vitesse du vent
fx = gusts
dd = Direction du vent
ppp = reduced air pressure
vv = visibility
rr = Quantités de précipitations

stations d'obs. à proximité